Home   Weather   Washington, D.C.   Past weeks
Flag for USA

Past Weather in Washington, D.C., District of Columbia, USA — Yesterday and Last 2 Weeks

Now
56 °F

Clear.


Feels Like: 56 °F
Forecast: 71 / 48 °F
Wind: No wind

Location: Reagan National Airport

Current Time: Oct 15, 2019 at 3:41:45 am

Latest Report: Oct 15, 2019 at 2:52 am


Visibility: 10 mi

Pressure: 30.11 "Hg

Humidity: 72%

Dew Point: 47 °F

Location of Washington, D.C.Location

Past Weather in Washington, D.C. — Graph

°F

Washington, D.C. Temperature Yesterday

Maximum temperature yesterday: 77 °F (at 3:52 pm)
Minimum temperature yesterday: 53 °F (at 6:52 am)
Average temperature yesterday: 64 °F

High & Low Weather Summary for the Past Weeks

 TemperatureHumidityPressure
High97 °F (Oct 2, 3:52 pm)91% (Oct 2, 7:52 am)30.44 "Hg (Oct 2, 7:52 am)
Low49 °F (Oct 5, 7:52 am)27% (Oct 14, 2:52 pm)29.82 "Hg (Oct 2, 5:52 pm)
Average68 °F64%30.12 "Hg
* Reported Sep 30 1:52 am — Oct 15 1:52 am, Washington, D.C.. Weather by CustomWeather, © 2019

Note: Actual official high and low records may vary slightly from our data, if they occured in-between our weather recording intervals... More about our weather records

Advertising

Washington, D.C. Weather History for the Previous 24 Hours

Scroll right to see more
 ConditionsComfort  
Time TempWeatherWind HumidityBarometerVisibility
1:52 am
Tue, Oct 15
60 °FClear.3 mph69%30.11 "Hg10 mi
12:52 am60 °FClear.5 mph58%30.09 "Hg10 mi
11:52 pm
Mon, Oct 14
62 °FClear.3 mph56%30.08 "Hg10 mi
10:52 pm63 °FClear.7 mph56%30.06 "Hg10 mi
9:52 pm64 °FClear.12 mph63%30.04 "Hg10 mi
8:52 pm65 °FClear.No wind61%30.02 "Hg10 mi
7:52 pm67 °FClear.6 mph55%30.01 "Hg10 mi
6:52 pm68 °FClear.6 mph57%29.99 "Hg10 mi
5:52 pm72 °FSunny.10 mph48%29.97 "Hg10 mi
4:52 pm76 °FSunny.12 mph30%29.96 "Hg10 mi
3:52 pm77 °FSunny.12 mph28%29.97 "Hg10 mi
2:52 pm76 °FSunny.7 mph27%29.98 "Hg10 mi
1:52 pm73 °FSunny.8 mph38%30.00 "Hg10 mi
12:54 pm73 °FSunny.6 mph28%30.03 "Hg10 mi
11:52 am68 °FSunny.5 mph55%30.04 "Hg10 mi
10:52 am63 °FSunny.6 mph70%30.06 "Hg10 mi
9:52 am60 °FSunny.3 mph78%30.06 "Hg10 mi
8:52 am59 °FSunny.3 mph78%30.05 "Hg10 mi
7:52 am54 °FScattered clouds.No wind86%30.03 "Hg9 mi
6:52 am53 °FPassing clouds.6 mph89%30.02 "Hg10 mi
5:52 am54 °FPassing clouds.No wind90%29.99 "Hg10 mi
4:52 am55 °FPassing clouds.No wind90%29.97 "Hg10 mi
3:52 am55 °FPassing clouds.3 mph90%29.98 "Hg10 mi
Weather by CustomWeather, © 2019

See weather overview